Time,TemperatureF,DewpointF,PressureIn,WindDirection,WindDirectionDegrees,WindSpeedMPH,WindSpeedGustMPH,Humidity,HourlyPrecipIn,Conditions,Clouds,dailyrainin,SolarRadiationWatts/m^2,SoftwareType,DateUTC
2013-02-13 00:09:00,39.1,35.0,30.39,NE,35,0.0,0.0,86,0.00,,,0.00,0,weatherlink.com 1.10,2013-02-13 08:09:00,
2013-02-13 00:24:00,38.6,34.0,30.39,NE,35,0.0,0.0,84,0.00,,,0.00,0,weatherlink.com 1.10,2013-02-13 08:24:00,
2013-02-13 00:39:00,38.2,34.0,30.39,NE,35,0.0,0.0,84,0.00,,,0.00,0,weatherlink.com 1.10,2013-02-13 08:39:00,
2013-02-13 00:54:00,37.7,34.0,30.39,NE,35,0.0,0.0,85,0.00,,,0.00,0,weatherlink.com 1.10,2013-02-13 08:54:00,
2013-02-13 01:09:00,37.1,33.0,30.39,NE,35,0.0,0.0,85,0.00,,,0.00,0,weatherlink.com 1.10,2013-02-13 09:09:00,
2013-02-13 01:24:00,36.8,33.0,30.39,NE,35,0.0,0.0,85,0.00,,,0.00,0,weatherlink.com 1.10,2013-02-13 09:24:00,
2013-02-13 01:39:00,36.5,33.0,30.39,NE,35,0.0,0.0,86,0.00,,,0.00,0,weatherlink.com 1.10,2013-02-13 09:39:00,
2013-02-13 01:54:00,36.3,33.0,30.39,NE,35,0.0,0.0,86,0.00,,,0.00,0,weatherlink.com 1.10,2013-02-13 09:54:00,
2013-02-13 02:09:00,36.1,33.0,30.39,NE,35,0.0,0.0,87,0.00,,,0.00,0,weatherlink.com 1.10,2013-02-13 10:09:00,
2013-02-13 02:24:00,36.0,33.0,30.39,NE,35,0.0,1.0,87,0.00,,,0.00,0,weatherlink.com 1.10,2013-02-13 10:24:00,
2013-02-13 02:39:00,35.7,32.0,30.39,NE,35,0.0,0.0,87,0.00,,,0.00,0,weatherlink.com 1.10,2013-02-13 10:39:00,
2013-02-13 02:54:00,35.5,32.0,30.38,NE,35,0.0,0.0,87,0.00,,,0.00,0,weatherlink.com 1.10,2013-02-13 10:54:00,
2013-02-13 03:09:00,35.4,32.0,30.38,NE,35,0.0,1.0,87,0.00,,,0.00,0,weatherlink.com 1.10,2013-02-13 11:09:00,
2013-02-13 03:24:00,35.1,32.0,30.38,NE,35,0.0,1.0,87,0.00,,,0.00,0,weatherlink.com 1.10,2013-02-13 11:24:00,
2013-02-13 03:40:00,34.8,32.0,30.38,NE,35,0.0,0.0,88,0.00,,,0.00,0,weatherlink.com 1.10,2013-02-13 11:40:00,
2013-02-13 03:55:00,34.7,32.0,30.37,NE,35,0.0,0.0,88,0.00,,,0.00,0,weatherlink.com 1.10,2013-02-13 11:55:00,
2013-02-13 04:10:00,34.5,31.0,30.38,NE,35,0.0,0.0,88,0.00,,,0.00,0,weatherlink.com 1.10,2013-02-13 12:10:00,
2013-02-13 04:25:00,34.3,31.0,30.37,NE,35,0.0,0.0,88,0.00,,,0.00,0,weatherlink.com 1.10,2013-02-13 12:25:00,
2013-02-13 04:40:00,34.1,31.0,30.37,NE,35,0.0,0.0,89,0.00,,,0.00,0,weatherlink.com 1.10,2013-02-13 12:40:00,
2013-02-13 04:55:00,33.9,31.0,30.38,NE,35,0.0,0.0,89,0.00,,,0.00,0,weatherlink.com 1.10,2013-02-13 12:55:00,
2013-02-13 05:10:00,33.7,31.0,30.38,NE,35,0.0,0.0,90,0.00,,,0.00,0,weatherlink.com 1.10,2013-02-13 13:10:00,
2013-02-13 05:25:00,33.8,32.0,30.38,NE,35,0.0,0.0,91,0.00,,,0.00,0,weatherlink.com 1.10,2013-02-13 13:25:00,
2013-02-13 05:40:00,33.6,31.0,30.38,NE,35,0.0,0.0,90,0.00,,,0.00,0,weatherlink.com 1.10,2013-02-13 13:40:00,
2013-02-13 05:55:00,33.4,31.0,30.38,NE,35,0.0,0.0,90,0.00,,,0.00,0,weatherlink.com 1.10,2013-02-13 13:55:00,
2013-02-13 06:10:00,33.3,31.0,30.38,NE,35,0.0,0.0,91,0.00,,,0.00,0,weatherlink.com 1.10,2013-02-13 14:10:00,
2013-02-13 06:25:00,33.3,31.0,30.38,NE,35,0.0,0.0,91,0.00,,,0.00,0,weatherlink.com 1.10,2013-02-13 14:25:00,
2013-02-13 06:40:00,33.4,31.0,30.38,NE,35,0.0,0.0,91,0.00,,,0.00,0,weatherlink.com 1.10,2013-02-13 14:40:00,
2013-02-13 06:55:00,33.3,31.0,30.38,NE,35,0.0,0.0,91,0.00,,,0.00,0,weatherlink.com 1.10,2013-02-13 14:55:00,
2013-02-13 07:10:00,33.0,31.0,30.39,NE,35,0.0,0.0,91,0.00,,,0.00,11,weatherlink.com 1.10,2013-02-13 15:10:00,
2013-02-13 07:25:00,33.0,31.0,30.39,NE,35,0.0,0.0,91,0.00,,,0.00,33,weatherlink.com 1.10,2013-02-13 15:25:00,
2013-02-13 07:40:00,33.5,32.0,30.39,NE,35,0.0,0.0,92,0.00,,,0.00,67,weatherlink.com 1.10,2013-02-13 15:40:00,
2013-02-13 07:55:00,35.1,33.0,30.39,NE,35,0.0,0.0,93,0.00,,,0.00,109,weatherlink.com 1.10,2013-02-13 15:55:00,
2013-02-13 08:10:00,38.0,35.0,30.40,NE,35,0.0,0.0,89,0.00,,,0.00,160,weatherlink.com 1.10,2013-02-13 16:10:00,
2013-02-13 08:25:00,40.9,36.0,30.40,NE,35,0.0,0.0,82,0.00,,,0.00,220,weatherlink.com 1.10,2013-02-13 16:25:00,
2013-02-13 08:40:00,43.1,36.0,30.40,NE,35,0.0,1.0,77,0.00,,,0.00,274,weatherlink.com 1.10,2013-02-13 16:40:00,
2013-02-13 08:55:00,44.9,37.0,30.40,NE,35,0.0,1.0,73,0.00,,,0.00,320,weatherlink.com 1.10,2013-02-13 16:55:00,
2013-02-13 09:10:00,46.5,37.0,30.39,NE,35,0.0,2.0,70,0.00,,,0.00,366,weatherlink.com 1.10,2013-02-13 17:10:00,
2013-02-13 09:25:00,47.3,37.0,30.39,NE,35,0.0,2.0,67,0.00,,,0.00,408,weatherlink.com 1.10,2013-02-13 17:25:00,
2013-02-13 09:40:00,47.7,38.0,30.39,North,11,0.0,2.0,68,0.00,,,0.00,445,weatherlink.com 1.10,2013-02-13 17:40:00,
2013-02-13 09:55:00,49.2,38.0,30.39,North,11,2.0,2.0,66,0.00,,,0.00,482,weatherlink.com 1.10,2013-02-13 17:55:00,
2013-02-13 10:10:00,50.2,39.0,30.40,NW,314,0.0,3.0,65,0.00,,,0.00,517,weatherlink.com 1.10,2013-02-13 18:10:00,
2013-02-13 10:26:00,51.4,39.0,30.40,WNW,285,0.0,4.0,63,0.00,,,0.00,547,weatherlink.com 1.10,2013-02-13 18:26:00,
2013-02-13 10:41:00,52.2,39.0,30.40,WNW,283,1.0,4.0,62,0.00,,,0.00,575,weatherlink.com 1.10,2013-02-13 18:41:00,
2013-02-13 10:56:00,53.8,40.0,30.39,West,281,0.0,4.0,60,0.00,,,0.00,598,weatherlink.com 1.10,2013-02-13 18:56:00,
2013-02-13 11:11:00,55.2,40.0,30.39,West,269,2.0,3.0,58,0.00,,,0.00,613,weatherlink.com 1.10,2013-02-13 19:11:00,
2013-02-13 11:26:00,56.4,40.0,30.39,West,259,0.0,4.0,54,0.00,,,0.00,635,weatherlink.com 1.10,2013-02-13 19:26:00,
2013-02-13 11:41:00,57.3,40.0,30.38,West,259,0.0,3.0,53,0.00,,,0.00,645,weatherlink.com 1.10,2013-02-13 19:41:00,
2013-02-13 11:56:00,58.5,40.0,30.37,WSW,257,0.0,4.0,51,0.00,,,0.00,656,weatherlink.com 1.10,2013-02-13 19:56:00,
2013-02-13 12:11:00,59.2,40.0,30.36,West,259,0.0,4.0,50,0.00,,,0.00,656,weatherlink.com 1.10,2013-02-13 20:11:00,
2013-02-13 12:26:00,61.1,41.0,30.35,East,89,5.0,5.0,47,0.00,,,0.00,654,weatherlink.com 1.10,2013-02-13 20:26:00,
2013-02-13 12:41:00,62.1,41.0,30.34,East,99,0.0,3.0,46,0.00,,,0.00,647,weatherlink.com 1.10,2013-02-13 20:41:00,
2013-02-13 12:56:00,61.6,40.0,30.34,West,267,0.0,5.0,46,0.00,,,0.00,643,weatherlink.com 1.10,2013-02-13 20:56:00,
2013-02-13 13:11:00,62.3,41.0,30.33,West,261,5.0,5.0,46,0.00,,,0.00,629,weatherlink.com 1.10,2013-02-13 21:11:00,
2013-02-13 13:26:00,62.7,40.0,30.32,West,279,2.0,5.0,43,0.00,,,0.00,610,weatherlink.com 1.10,2013-02-13 21:26:00,
2013-02-13 13:41:00,63.6,41.0,30.31,West,281,0.0,4.0,43,0.00,,,0.00,596,weatherlink.com 1.10,2013-02-13 21:41:00,
2013-02-13 13:56:00,64.7,41.0,30.30,South,173,2.0,3.0,42,0.00,,,0.00,566,weatherlink.com 1.10,2013-02-13 21:56:00,
2013-02-13 14:11:00,66.1,40.0,30.30,SE,140,2.0,3.0,38,0.00,,,0.00,534,weatherlink.com 1.10,2013-02-13 22:11:00,
2013-02-13 14:26:00,66.4,39.0,30.29,NE,40,3.0,4.0,37,0.00,,,0.00,512,weatherlink.com 1.10,2013-02-13 22:26:00,
2013-02-13 14:41:00,65.8,37.0,30.29,NE,45,1.0,3.0,35,0.00,,,0.00,478,weatherlink.com 1.10,2013-02-13 22:41:00,
2013-02-13 14:56:00,66.6,37.0,30.29,NNE,16,3.0,4.0,34,0.00,,,0.00,446,weatherlink.com 1.10,2013-02-13 22:56:00,
2013-02-13 15:11:00,66.5,38.0,30.29,East,98,1.0,3.0,35,0.00,,,0.00,404,weatherlink.com 1.10,2013-02-13 23:11:00,
2013-02-13 15:27:00,67.1,37.0,30.28,East,98,0.0,2.0,33,0.00,,,0.00,362,weatherlink.com 1.10,2013-02-13 23:27:00,
2013-02-13 15:42:00,66.3,37.0,30.28,North,355,2.0,3.0,34,0.00,,,0.00,318,weatherlink.com 1.10,2013-02-13 23:42:00,
2013-02-13 15:57:00,65.6,38.0,30.27,North,360,1.0,4.0,36,0.00,,,0.00,272,weatherlink.com 1.10,2013-02-13 23:57:00,
2013-02-13 16:12:00,65.6,38.0,30.27,ESE,117,1.0,3.0,37,0.00,,,0.00,225,weatherlink.com 1.10,2013-02-14 00:12:00,
2013-02-13 16:27:00,65.5,40.0,30.27,ESE,116,1.0,3.0,39,0.00,,,0.00,179,weatherlink.com 1.10,2013-02-14 00:27:00,
2013-02-13 16:42:00,64.7,39.0,30.27,ESE,115,1.0,3.0,39,0.00,,,0.00,130,weatherlink.com 1.10,2013-02-14 00:42:00,
2013-02-13 16:57:00,64.3,40.0,30.27,ESE,115,0.0,1.0,41,0.00,,,0.00,39,weatherlink.com 1.10,2013-02-14 00:57:00,
2013-02-13 17:12:00,63.8,40.0,30.27,ESE,115,0.0,0.0,42,0.00,,,0.00,21,weatherlink.com 1.10,2013-02-14 01:12:00,
2013-02-13 17:27:00,61.7,43.0,30.27,West,277,3.0,4.0,51,0.00,,,0.00,14,weatherlink.com 1.10,2013-02-14 01:27:00,
2013-02-13 17:42:00,60.1,44.0,30.27,West,280,2.0,4.0,55,0.00,,,0.00,5,weatherlink.com 1.10,2013-02-14 01:42:00,
2013-02-13 17:57:00,59.0,44.0,30.27,West,280,0.0,1.0,57,0.00,,,0.00,0,weatherlink.com 1.10,2013-02-14 01:57:00,
2013-02-13 18:12:00,57.9,44.0,30.27,West,280,1.0,3.0,60,0.00,,,0.00,0,weatherlink.com 1.10,2013-02-14 02:12:00,
2013-02-13 18:27:00,57.0,43.0,30.27,West,280,0.0,2.0,61,0.00,,,0.00,0,weatherlink.com 1.10,2013-02-14 02:27:00,
2013-02-13 18:42:00,56.2,43.0,30.27,West,276,0.0,0.0,61,0.00,,,0.00,0,weatherlink.com 1.10,2013-02-14 02:42:00,
2013-02-13 18:57:00,55.4,42.0,30.27,West,276,0.0,3.0,62,0.00,,,0.00,0,weatherlink.com 1.10,2013-02-14 02:57:00,
2013-02-13 19:12:00,54.5,42.0,30.27,West,276,0.0,0.0,63,0.00,,,0.00,0,weatherlink.com 1.10,2013-02-14 03:12:00,
2013-02-13 19:27:00,53.5,42.0,30.27,West,276,0.0,0.0,65,0.00,,,0.00,0,weatherlink.com 1.10,2013-02-14 03:27:00,
2013-02-13 19:42:00,52.6,42.0,30.27,West,276,0.0,0.0,67,0.00,,,0.00,0,weatherlink.com 1.10,2013-02-14 03:42:00,
2013-02-13 19:57:00,52.1,42.0,30.27,West,276,0.0,0.0,69,0.00,,,0.00,0,weatherlink.com 1.10,2013-02-14 03:57:00,
2013-02-13 20:12:00,51.3,41.0,30.27,West,276,0.0,0.0,68,0.00,,,0.00,0,weatherlink.com 1.10,2013-02-14 04:12:00,
2013-02-13 20:42:00,49.4,40.0,30.28,West,276,0.0,0.0,70,0.00,,,0.00,0,weatherlink.com 1.10,2013-02-14 04:42:00,
2013-02-13 20:57:00,48.5,40.0,30.28,West,276,0.0,0.0,73,0.00,,,0.00,0,weatherlink.com 1.10,2013-02-14 04:57:00,
2013-02-13 21:12:00,47.5,40.0,30.28,West,276,0.0,0.0,75,0.00,,,0.00,0,weatherlink.com 1.10,2013-02-14 05:12:00,
2013-02-13 21:27:00,46.9,40.0,30.28,West,276,0.0,0.0,77,0.00,,,0.00,0,weatherlink.com 1.10,2013-02-14 05:27:00,
2013-02-13 21:42:00,46.2,40.0,30.28,West,276,0.0,0.0,78,0.00,,,0.00,0,weatherlink.com 1.10,2013-02-14 05:42:00,
2013-02-13 21:57:00,45.6,40.0,30.28,West,276,0.0,0.0,80,0.00,,,0.00,0,weatherlink.com 1.10,2013-02-14 05:57:00,
2013-02-13 22:12:00,45.0,39.0,30.28,West,276,0.0,0.0,80,0.00,,,0.00,0,weatherlink.com 1.10,2013-02-14 06:12:00,
2013-02-13 22:27:00,44.5,39.0,30.29,West,276,0.0,0.0,82,0.00,,,0.00,0,weatherlink.com 1.10,2013-02-14 06:27:00,
2013-02-13 22:42:00,44.0,39.0,30.28,West,276,0.0,0.0,82,0.00,,,0.00,0,weatherlink.com 1.10,2013-02-14 06:42:00,
2013-02-13 22:57:00,43.6,39.0,30.28,West,276,0.0,0.0,83,0.00,,,0.00,0,weatherlink.com 1.10,2013-02-14 06:57:00,
2013-02-13 23:12:00,43.0,39.0,30.28,West,276,0.0,0.0,84,0.00,,,0.00,0,weatherlink.com 1.10,2013-02-14 07:12:00,
2013-02-13 23:27:00,42.5,38.0,30.28,West,276,0.0,0.0,84,0.00,,,0.00,0,weatherlink.com 1.10,2013-02-14 07:27:00,
2013-02-13 23:42:00,42.0,38.0,30.28,West,276,0.0,0.0,84,0.00,,,0.00,0,weatherlink.com 1.10,2013-02-14 07:42:00,
2013-02-13 23:57:00,41.8,38.0,30.29,West,276,0.0,0.0,85,0.00,,,0.00,0,weatherlink.com 1.10,2013-02-14 07:57:00,